Eau Claire, WI

1:24 PM CST on February 22, 2018 (GMT -0600)
Chippewa Valley Regional

Weather History for KEAU - February, 2013

Change the Weather History Date:

Sunday, February 3, 2013

  Actual Average Record
Temperature  
Mean Temperature 10 °F 16 °F  
Max Temperature 14 °F 25 °F 47 °F (1991)
Min Temperature 6 °F 6 °F -34 °F (1912)
Degree Days  
Heating Degree Days 55 49  
Month to date heating degree days 185 148  
Since 1 July heating degree days 4728 4892  
Cooling Degree Days 0 0  
Month to date cooling degree days 0 0  
Year to date cooling degree days 0 0  
Moisture  
Dew Point 2 °F    
Average Humidity 72    
Maximum Humidity 88    
Minimum Humidity 55    
Precipitation  
Precipitation T in 0.03 in 0.60 in (1919)
Month to date precipitation 0.04 0.08  
Year to date precipitation 1.12 0.97  
Snow  
Snow T in 0.30 in 5.00 in (1976)
Month to date snowfall 0.7 1.0  
Since 1 July snowfall 27.8 30.0  
Snow Depth 3.00 in    
Sea Level Pressure  
Sea Level Pressure 30.01 in    
Wind  
Wind Speed 6 mph (West)    
Max Wind Speed 15 mph    
Max Gust Speed 20 mph    
Visibility 7 miles    
Events Snow    
T = Trace of Precipitation, MM = Missing Value Source: NWS Daily Summary

Daily Weather History Graph

Daily Weather History Graph

Search for Another Location

Airport or City:

Trip Planner

Search our weather history database for the weather conditions in past years. The results will help you decide how hot, cold, wet, or windy it might be!

Date:

Astronomy

Feb. 03, 2013 Rise Set
Actual Time 7:22 AM CST 5:17 PM CST
Civil Twilight 6:51 AM CST 5:48 PM CST
Nautical Twilight 6:16 AM CST 6:23 PM CST
Astronomical Twilight 5:42 AM CST 6:57 PM CST
Moon 12:51 AM CST (2/3) 10:53 AM CST (2/3)
Length of Visible Light 10h 56m
Length of Day
9h 54m
Waning Gibbous, 48% of the Moon is Illuminated
Feb 3
Waning Gibbous
Feb 10
New
Feb 17
First Quarter
Feb 25
Full
Mar 4
Last Quarter

Hourly Weather History & Observations

Time (CST) Temp. Windchill Dew Point Humidity Pressure Visibility Wind Dir Wind Speed Gust Speed Precip Events Conditions
12:56 AM 8.1 °F - 3.0 °F 80% 30.01 in 5.0 mi Calm Calm - 0.00 in Snow Light Snow
1:35 AM 8.6 °F - 3.2 °F 79% 29.93 in 5.0 mi Calm Calm - 0.00 in Snow Light Snow
1:46 AM 8.6 °F - 3.2 °F 79% 29.93 in 6.0 mi Calm Calm - 0.00 in Snow Light Snow
2:39 AM 8.6 °F 0.1 °F 3.2 °F 79% 29.93 in 5.0 mi West 4.6 mph - 0.00 in Snow Light Snow
2:56 AM 8.1 °F -2.0 °F 3.0 °F 80% 29.99 in 4.0 mi WSW 5.8 mph - 0.00 in Snow Light Snow
3:12 AM 8.6 °F -2.6 °F 3.2 °F 79% 29.92 in 5.0 mi West 6.9 mph - 0.00 in Snow Light Snow
3:56 AM 8.1 °F -3.2 °F 3.9 °F 83% 29.99 in 6.0 mi West 6.9 mph - 0.00 in Snow Light Snow
4:56 AM 9.0 °F -0.9 °F 3.0 °F 77% 30.01 in 9.0 mi WNW 5.8 mph - 0.00 in   Overcast
5:56 AM 8.1 °F -5.3 °F 1.9 °F 76% 30.03 in 10.0 mi WNW 9.2 mph - N/A   Overcast
6:56 AM 8.1 °F -4.3 °F 1.0 °F 73% 30.04 in 10.0 mi WNW 8.1 mph - N/A   Overcast
7:56 AM 6.1 °F -6.8 °F -0.0 °F 76% 30.05 in 10.0 mi West 8.1 mph - N/A   Clear
8:56 AM 7.0 °F -5.7 °F -0.0 °F 73% 30.06 in 10.0 mi West 8.1 mph - N/A   Clear
9:56 AM 8.1 °F -7.0 °F -0.0 °F 70% 30.07 in 10.0 mi WNW 11.5 mph 18.4 mph N/A   Clear
10:56 AM 10.0 °F -2.9 °F 1.0 °F 67% 30.06 in 10.0 mi West 9.2 mph - N/A   Clear
11:56 AM 10.9 °F -4.1 °F 1.0 °F 64% 30.06 in 10.0 mi West 12.7 mph - N/A   Scattered Clouds
12:56 PM 12.0 °F -4.0 °F -0.0 °F 59% 30.06 in 10.0 mi West 15.0 mph 18.4 mph N/A   Clear
1:56 PM 12.9 °F 0.7 °F -0.0 °F 56% 30.04 in 10.0 mi West 9.2 mph - N/A   Clear
2:56 PM 14.0 °F 2.0 °F -0.0 °F 54% 30.03 in 10.0 mi West 9.2 mph - N/A   Clear
3:56 PM 12.0 °F -1.3 °F -0.0 °F 59% 30.03 in 10.0 mi West 10.4 mph - N/A   Scattered Clouds
4:56 PM 12.0 °F -0.4 °F 1.0 °F 61% 30.02 in 10.0 mi West 9.2 mph - N/A   Overcast
5:56 PM 12.0 °F 1.5 °F 1.0 °F 61% 30.02 in 10.0 mi WNW 6.9 mph - N/A   Overcast
6:56 PM 12.0 °F 4.1 °F 1.0 °F 61% 30.03 in 10.0 mi WNW 4.6 mph - N/A   Overcast
7:39 PM 12.2 °F - 1.4 °F 62% 29.98 in 0.2 mi Calm Calm - N/A   Haze
7:56 PM 12.0 °F - 3.0 °F 67% 30.04 in 0.2 mi Calm Calm - N/A   Haze
8:05 PM 12.2 °F - 3.2 °F 67% 29.98 in 1.5 mi Calm Calm - N/A   Haze
8:12 PM 12.2 °F - 1.4 °F 62% 29.97 in 10.0 mi Calm Calm - N/A   Overcast
8:56 PM 10.9 °F - 3.0 °F 70% 30.04 in 10.0 mi Calm Calm - N/A   Overcast
9:56 PM 12.0 °F - 3.9 °F 70% 30.03 in 10.0 mi Calm Calm - N/A   Overcast
10:56 PM 12.0 °F - 3.9 °F 70% 30.02 in 5.0 mi Calm Calm - 0.00 in Snow Light Snow
11:36 PM 10.4 °F - 5.0 °F 79% 29.96 in 2.5 mi Calm Calm - 0.00 in Snow Light Snow
11:56 PM 10.9 °F - 5.0 °F 77% 30.03 in 2.5 mi Calm Calm - 0.00 in Snow Light Snow